Miscellaneous Local Product
Issued by NWS Hastings, NE

Home | Current Version | Previous Version | Graphics & Text | Print | Product List | Glossary On
Versions: 1 2 3 4 5 6 7 8 9 10 11 12 13 14 15 16 17 18 19 20 21 22 23 24 25 26 27 28 29 30 31 32 33 34 35 36 37 38 39 40 41 42 43 44 45 46 47 48 49 50
000
AXUS43 KGID 262302
MISGRI

GID CWA HOURLY WEATHER ROUNDUP
NATIONAL WEATHER SERVICE HASTINGS NE
500 PM CST SUN FEB 26 2017

NOTE: "FAIR" INDICATES FEW OR NO CLOUDS BELOW 12,000 FEET WITH NO
SIGNIFICANT WEATHER AND/OR OBSTRUCTIONS TO VISIBILITY.

...SOUTH CENTRAL NEBRASKA...

CITY           SKY/WX    TMP DP  RH WIND       PRES   REMARKS
GRAND ISLAND   SUNNY     43  16  33 W6        29.91R
HASTINGS       SUNNY     44  13  28 NW7       29.91R
KEARNEY        SUNNY     43  10  26 NW8       29.91R
ORD            SUNNY     39  14  36 W5        29.88R
YORK           SUNNY     41  19  42 NE3       29.92S
AURORA         SUNNY     43  15  32 W3        29.91R
LEXINGTON      SUNNY     41  13  31 NW7       29.90R
HOLDREGE       SUNNY     42  10  26 NW5       29.90R
HEBRON         SUNNY     47  10  22 CALM      29.92R

...NEBRASKA PANHANDLE...

CITY           SKY/WX    TMP DP  RH WIND       PRES   REMARKS
CHADRON        CLOUDY    25  14  63 SW5       29.82F WCI  19
ALLIANCE       CLOUDY    24  18  77 SW6       29.81S WCI  17
SCOTTSBLUFF    CLOUDY    31  14  49 W10       29.82S WCI  22
SIDNEY         SUNNY     35  16  45 SW9       29.82S WCI  28

...WESTERN AND NORTH CENTRAL NEBRASKA...

CITY           SKY/WX    TMP DP  RH WIND       PRES   REMARKS
VALENTINE      SUNNY     29  16  58 W10       29.84S WCI  20
AINSWORTH      SUNNY     32  19  59 W8        29.85R WCI  25
ONEILL         SUNNY     35  21  55 SW6       29.88S WCI  30
BROKEN BOW     SUNNY     37  18  46 W6        29.88R WCI  32
IMPERIAL       SUNNY     40  12  32 NE6       29.87S
NORTH PLATTE   SUNNY     39  11  31 W9        29.89R WCI  33
MCCOOK         SUNNY     43   9  24 N9        29.90R

...EASTERN NEBRASKA...

CITY           SKY/WX    TMP DP  RH WIND       PRES   REMARKS
NORFOLK        SUNNY     37  23  56 S8        29.91R WCI  31
SO SIOUX CITY  SUNNY     34  25  69 SW5       29.94R WCI  30
TEKAMAH        SUNNY     38  26  62 CALM      29.95S
COLUMBUS       SUNNY     39  23  52 CALM      29.93S
ALBION         SUNNY     40  19  41 SW5       29.91R
OMAHA EPPLEY   MOSUNNY   44  22  41 N5        29.95R
OFFUTT AFB     SUNNY     44  19  36 NW6       29.94R
MILLARD        SUNNY     45  22  41 CALM      29.95R
LINCOLN        SUNNY     45  24  43 N6        29.95R
NEBRASKA CITY  SUNNY     45  15  29 N8        29.94R
BEATRICE       SUNNY     47  18  31 NW9       29.93R
FALLS CITY     MOSUNNY   52  21  29 MISG      29.91R

...NORTHERN KANSAS...

CITY           SKY/WX    TMP DP  RH WIND       PRES   REMARKS
GOODLAND       SUNNY     44   5  20 S9        29.84S
HILL CITY      SUNNY     48   7  18 NW12      29.92R
PHILLIPSBURG   SUNNY     48   7  18 W12       29.92R
SMITH CENTER   SUNNY     46   7  19 NW12      29.92R
HAYS           SUNNY     49   6  17 NW8       29.91R
RUSSELL        SUNNY     50   5  16 NW5       29.90R
CONCORDIA      SUNNY     50  10  20 W9        29.90R
SALINA         SUNNY     54  15  21 NW6       29.92R
TOPEKA         SUNNY     53  25  33 W3        29.92S



USA.gov is the U.S. government's official web portal to all federal, state and local government web resources and services.